Location: Clayton (historical)
(34.0300°N, 118.0259°W)
Time: 01:07:45
(UTC+00:00)

Envisat - Pass Details

Date: 29 January 2021
Orbit: 764 x 766 km, 98.1° (Epoch: 06 March)

Event Time Altitude Azimuth Distance (km) Brightness Sun altitude
Rises 12:10:59 0° 39° (NE) 3,234 6.7 -33.3°
Reaches altitude 10° 12:15:04 10° 71° (ENE) 2,301 6.2 -32.4°
Maximum altitude 12:16:46 12° 91° (E) 2,188 6.2 -32.1°
Drops below altitude 10° 12:18:28 10° 111° (ESE) 2,296 6.2 -31.7°
Sets 12:22:30 0° 144° (SE) 3,215 6.7 -30.9°
